Location: Belfast
(54.5830°N, 5.9330°W)
Time: 13:36:44
(UTC+01:00)

ISS - Pass Details

Date: 17 May 2018
Orbit: 402 x 407 km, 51.6° (Epoch: 22 May)

Event Time Altitude Azimuth Distance (km) Brightness Sun altitude
Exits shadow 03:11:54 13° 253° (WSW) 1,276 -1.7 -12.4°
Maximum altitude 03:14:37 50° 179° (S) 519 -3.7 -12.2°
Drops below altitude 10° 03:17:48 10° 103° (ESE) 1,459 -0.8 -12.0°
Sets 03:19:54 0° 98° (E) 2,318 0.3 -11.8°
